Location: *
(53.9002°N, 27.5624°E)
Time: 10:33:51
(UTC+00:00)

Aureole 2 Rocket - Pass Details

Date: 12 November 2019
Orbit: 311 x 467 km, 73.9° (Epoch: 12 December)

Event Time Altitude Azimuth Distance (km) Brightness Sun altitude
Rises 15:13:22 0° 205° (SSW) 2,346 6.7 -8.5°
Reaches altitude 10° 15:15:21 10° 205° (SSW) 1,515 5.7 -8.7°
Maximum altitude 15:18:42 89° 119° (ESE) 448 2.3 -9.2°
Drops below altitude 10° 15:22:15 10° 27° (NNE) 1,603 4.8 -9.7°
Enters shadow 15:23:05 - 27° (NNE) 1,952 5.2 -9.8°
